EW9532 Weather Reports


time (UTC)temp
C
wind
direction
speed
KPH
gust
KPH
rain 1hr
cm
rain 24hr
cm
rain mn
cm
humidity
%
barometer
mb
20260504050602 21 72 0.0 6.4 0.00 0.00 0.00 74 1019.0
20260504045823 22 155 0.0 6.4 0.00 0.00 0.00 73 1019.3
20260504045101 22 155 0.0 6.4 0.00 0.00 0.00 73 1019.3
20260504044601 22 3 0.0 6.4 0.00 0.00 0.00 73 1019.4
20260504044102 22 139 0.0 4.8 0.00 0.00 0.00 73 1019.4
20260504043602 22 250 0.0 11.3 0.00 0.00 0.00 72 1019.5
20260504043103 22 65 3.2 11.3 0.00 0.00 0.00 72 1019.6
20260504043050 22 155 1.6 9.7 0.00 0.00 0.00 72 1019.8
20260504042819 22 122 1.6 8.0 0.00 0.00 0.00 72 1019.6
20260504042102 22 267 0.0 6.4 0.00 0.00 0.00 72 1019.5
20260504041824 22 150 1.6 6.4 0.00 0.00 0.00 72 1019.5
20260504041550 22 0 0.0 8.0 0.00 0.00 0.00 71 1019.7
20260504041103 22 150 0.0 4.8 0.00 0.00 0.00 71 1019.5
20260504040602 22 134 0.0 6.4 0.00 0.00 0.00 71 1019.5
20260504040107 22 335 1.6 6.4 0.00 0.00 0.00 71 1019.5
20260504040056 22 0 0.0 4.8 0.00 0.00 0.00 70 1019.8
20260504035601 22 32 0.0 9.7 0.00 0.00 0.00 71 1019.4
20260504035101 22 60 1.6 9.7 0.00 0.00 0.00 70 1019.6
20260504034601 22 31 1.6 9.7 0.00 0.00 0.00 70 1019.7
20260504034554 22 0 0.0 9.7 0.00 0.00 0.00 70 1019.9
20260504034103 22 191 0.0 9.7 0.00 0.00 0.00 70 1019.6
20260504033602 22 288 1.6 9.7 0.00 0.00 0.00 70 1019.7
20260504033321 22 53 0.0 6.4 0.00 0.00 0.00 69 1019.4
20260504033056 22 59 0.0 6.4 0.00 0.00 0.00 69 1019.6
20260504032817 22 86 0.0 6.4 0.00 0.00 0.00 69 1019.5
20260504032102 22 44 0.0 6.4 0.00 0.00 0.00 69 1019.5
20260504031828 22 180 0.0 6.4 0.00 0.00 0.00 68 1019.4
20260504031550 22 0 0.0 8.0 0.00 0.00 0.00 68 1019.7
20260504031103 22 259 0.0 9.7 0.00 0.00 0.00 68 1019.4
20260504030602 22 129 0.0 9.7 0.00 0.00 0.00 67 1019.3
20260504030107 23 226 1.6 9.7 0.00 0.00 0.00 67 1019.3
20260504030052 22 0 0.0 8.0 0.00 0.00 0.00 66 1019.6
20260504025600 23 20 3.2 12.9 0.00 0.00 0.00 67 1019.4
20260504025101 23 321 3.2 12.9 0.00 0.00 0.00 66 1019.3
20260504024828 23 217 1.6 12.9 0.00 0.00 0.00 66 1019.1
20260504024548 22 98 0.0 12.9 0.00 0.00 0.00 65 1019.4
20260504024323 23 195 0.0 12.9 0.00 0.00 0.00 66 1019.1
20260504023601 23 258 3.2 12.9 0.00 0.00 0.00 65 1019.1
20260504023101 23 157 3.2 12.9 0.00 0.00 0.00 65 1018.9
20260504023048 23 182 1.6 12.9 0.00 0.00 0.00 64 1019.2
20260504022601 23 216 0.0 9.7 0.00 0.00 0.00 64 1018.9
20260504022101 23 285 1.6 11.3 0.00 0.00 0.00 64 1018.8
20260504021602 23 181 1.6 11.3 0.00 0.00 0.00 64 1018.9
20260504021547 23 0 1.6 11.3 0.00 0.00 0.00 63 1019.1
20260504021057 23 170 1.6 12.9 0.00 0.00 0.00 63 1018.6
20260504020550 23 225 1.6 12.9 0.00 0.00 0.00 63 1018.8
20260504020310 23 103 1.6 9.7 0.00 0.00 0.00 62 1018.6
20260504020052 23 110 1.6 12.9 0.00 0.00 0.00 62 1018.9
20260504015547 23 148 1.6 14.5 0.00 0.00 0.00 62 1018.6
20260504015250 24 220 3.2 16.1 0.00 0.00 0.00 61 1018.6
20260504014542 23 337 1.6 16.1 0.00 0.00 0.00 60 1018.7
20260504014530 24 309 1.6 16.1 0.00 0.00 0.00 61 1018.5
20260504014031 24 317 3.2 12.9 0.00 0.00 0.00 60 1018.4
20260504013801 24 302 3.2 12.9 0.00 0.00 0.00 60 1018.4
20260504013051 24 0 0.0 4.8 0.00 0.00 0.00 59 1018.5
20260504013030 24 257 1.6 6.4 0.00 0.00 0.00 59 1018.2
20260504012749 24 168 0.0 6.4 0.00 0.00 0.00 58 1018.2
20260504012029 24 65 0.0 9.7 0.00 0.00 0.00 58 1018.0
20260504011550 24 0 1.6 9.7 0.00 0.00 0.00 57 1018.3
20260504011529 25 262 1.6 9.7 0.00 0.00 0.00 57 1018.0
20260504011029 25 301 1.6 8.0 0.00 0.00 0.00 57 1018.1
20260504010529 25 180 0.0 16.1 0.00 0.00 0.00 56 1018.1
20260504010055 25 0 1.6 14.5 0.00 0.00 0.00 55 1018.3
20260504010028 25 175 1.6 16.1 0.00 0.00 0.00 55 1018.1
20260504005529 25 198 1.6 11.3 0.00 0.00 0.00 55 1018.1
20260504005028 25 248 0.0 11.3 0.00 0.00 0.00 55 1018.1
20260504004547 25 0 0.0 8.0 0.00 0.00 0.00 54 1018.4
20260504004531 25 321 1.6 9.7 0.00 0.00 0.00 54 1018.1
20260504004030 25 1 0.0 12.9 0.00 0.00 0.00 54 1018.0
20260504003530 25 307 0.0 12.9 0.00 0.00 0.00 53 1017.9
20260504003046 25 0 1.6 9.7 0.00 0.00 0.00 52 1018.2
20260504003030 26 207 1.6 8.0 0.00 0.00 0.00 53 1018.0
20260504002529 26 207 0.0 12.9 0.00 0.00 0.00 53 1018.0
20260504002250 26 162 0.0 12.9 0.00 0.00 0.00 52 1017.9
20260504001602 26 157 0.0 9.7 0.00 0.00 0.00 51 1018.2
20260504001529 26 224 1.6 8.0 0.00 0.00 0.00 52 1018.0
20260504001029 26 41 1.6 12.9 0.00 0.00 0.00 51 1018.0
20260504000529 26 245 1.6 12.9 0.00 0.00 0.00 51 1018.0
20260504000049 26 251 3.2 12.9 0.00 0.00 0.00 50 1018.2
20260504000029 27 97 3.2 12.9 0.00 0.00 0.00 50 1018.0
20260503235528 27 205 3.2 12.9 0.00 0.00 0.00 50 1017.8
20260503235029 27 103 3.2 12.9 0.00 0.00 0.00 50 1017.8
20260503234549 27 0 0.0 11.3 0.00 0.00 0.00 49 1017.9
20260503234531 27 159 1.6 8.0 0.00 0.00 0.00 50 1017.7
20260503234516 27 233 0.0 14.5 0.00 0.00 0.00 50 1017.7
20260503233523 27 228 3.2 14.5 0.00 0.00 0.00 49 1017.7
20260503233044 27 287 4.8 14.5 0.00 0.00 0.00 48 1018.1
20260503233020 27 205 6.4 12.9 0.00 0.00 0.00 48 1017.9
20260503232748 27 51 1.6 6.4 0.00 0.00 0.00 49 1017.9
20260503232011 28 268 0.0 6.4 0.00 0.00 0.00 48 1017.9
20260503231547 27 40 0.0 9.7 0.00 0.00 0.00 47 1018.2
20260503231512 27 29 0.0 9.7 0.00 0.00 0.00 48 1017.9
20260503231011 27 332 3.2 9.7 0.00 0.00 0.00 48 1018.0
20260503230738 28 123 1.6 8.0 0.00 0.00 0.00 48 1018.1
20260503230048 28 0 0.0 8.0 0.00 0.00 0.00 47 1018.2
20260503230005 28 196 1.6 8.0 0.00 0.00 0.00 47 1018.0
20260503225503 28 334 1.6 9.7 0.00 0.00 0.00 47 1018.0
20260503225004 28 118 0.0 9.7 0.00 0.00 0.00 46 1018.0
20260503224549 28 188 0.0 11.3 0.00 0.00 0.00 45 1018.3
20260503224503 28 7 0.0 11.3 0.00 0.00 0.00 47 1018.0
20260503224002 28 255 1.6 11.3 0.00 0.00 0.00 46 1018.1
20260503223502 28 290 0.0 6.4 0.00 0.00 0.00 46 1018.2
20260503223059 28 131 0.0 6.4 0.00 0.00 0.00 46 1018.6
20260503223002 28 297 0.0 8.0 0.00 0.00 0.00 47 1018.4
20260503222501 28 123 0.0 8.0 0.00 0.00 0.00 47 1018.4
20260503222002 28 310 1.6 8.0 0.00 0.00 0.00 48 1018.4
20260503221553 27 0 0.0 14.5 0.00 0.00 0.00 47 1018.6
20260503221500 27 256 0.0 14.5 0.00 0.00 0.00 48 1018.5
20260503221001 28 331 6.4 14.5 0.00 0.00 0.00 47 1018.4
20260503220501 28 186 3.2 12.9 0.00 0.00 0.00 46 1018.5
20260503220105 28 230 1.6 11.3 0.00 0.00 0.00 45 1018.8
20260503220001 28 311 3.2 9.7 0.00 0.00 0.00 46 1018.5
20260503215501 28 355 0.0 11.3 0.00 0.00 0.00 45 1018.7
20260503215000 28 178 0.0 11.3 0.00 0.00 0.00 46 1018.7
20260503214947 28 314 1.6 9.7 0.00 0.00 0.00 46 1018.9
20260503214548 28 285 0.0 8.0 0.00 0.00 0.00 45 1019.1
20260503214223 28 176 3.2 9.7 0.00 0.00 0.00 45 1019.0
20260503213502 28 205 1.6 9.7 0.00 0.00 0.00 45 1019.1
20260503213048 28 0 0.0 6.4 0.00 0.00 0.00 45 1019.4
20260503213002 28 287 0.0 6.4 0.00 0.00 0.00 44 1019.1
20260503212502 28 359 0.0 12.9 0.00 0.00 0.00 45 1019.2
20260503212000 28 15 1.6 12.9 0.00 0.00 0.00 46 1019.2
20260503211605 28 291 0.0 8.0 0.00 0.00 0.00 44 1019.4
20260503211501 28 298 0.0 8.0 0.00 0.00 0.00 45 1019.1
20260503211001 28 156 1.6 8.0 0.00 0.00 0.00 44 1019.3
20260503210501 28 326 1.6 12.9 0.00 0.00 0.00 46 1019.3
20260503210055 28 0 0.0 11.3 0.00 0.00 0.00 43 1019.6
20260503210002 28 186 1.6 12.9 0.00 0.00 0.00 43 1019.4
20260503205502 29 308 3.2 12.9 0.00 0.00 0.00 44 1019.5
20260503205451 29 112 1.6 9.7 0.00 0.00 0.00 43 1019.6
20260503204553 28 352 1.6 11.3 0.00 0.00 0.00 43 1019.8
20260503204501 28 2 3.2 11.3 0.00 0.00 0.00 44 1019.6
20260503204251 28 280 1.6 11.3 0.00 0.00 0.00 45 1019.7
20260503203502 28 271 0.0 12.9 0.00 0.00 0.00 45 1019.9
20260503203047 28 0 0.0 11.3 0.00 0.00 0.00 43 1020.3
20260503203001 28 25 0.0 12.9 0.00 0.00 0.00 44 1020.0
20260503202501 29 330 1.6 9.7 0.00 0.00 0.00 43 1020.2
20260503202001 29 91 1.6 16.1 0.00 0.00 0.00 44 1020.2
20260503201547 28 0 1.6 16.1 0.00 0.00 0.00 43 1020.7
20260503201501 29 252 0.0 16.1 0.00 0.00 0.00 44 1020.5
20260503201001 29 207 0.0 6.4 0.00 0.00 0.00 43 1020.6
20260503200501 29 229 0.0 6.4 0.00 0.00 0.00 42 1021.0
20260503200050 28 276 0.0 6.4 0.00 0.00 0.00 44 1021.2
20260503200000 29 34 1.6 6.4 0.00 0.00 0.00 44 1020.9
20260503195730 29 236 0.0 3.2 0.00 0.00 0.00 42 1021.0
20260503195002 29 214 0.0 6.4 0.00 0.00 0.00 44 1021.2
20260503194555 28 0 0.0 8.0 0.00 0.00 0.00 44 1021.5
20260503194501 28 262 1.6 6.4 0.00 0.00 0.00 45 1021.3
20260503194002 28 308 0.0 6.4 0.00 0.00 0.00 43 1021.4
20260503193501 28 195 0.0 8.0 0.00 0.00 0.00 47 1021.4
20260503193118 27 0 0.0 11.3 0.00 0.00 0.00 47 1021.7
20260503193001 27 203 0.0 8.0 0.00 0.00 0.00 47 1021.6
20260503192726 27 232 0.0 4.8 0.00 0.00 0.00 46 1021.5
20260503192001 28 184 0.0 8.0 0.00 0.00 0.00 46 1021.6
20260503191548 28 0 0.0 8.0 0.00 0.00 0.00 44 1022.0
20260503191500 28 18 0.0 8.0 0.00 0.00 0.00 44 1021.7
20260503191001 29 10 0.0 9.7 0.00 0.00 0.00 44 1021.7
20260503190720 28 169 3.2 9.7 0.00 0.00 0.00 44 1021.8
20260503190052 28 0 0.0 3.2 0.00 0.00 0.00 43 1022.0
20260503190001 28 226 0.0 3.2 0.00 0.00 0.00 45 1021.8
20260503185503 29 276 0.0 3.2 0.00 0.00 0.00 43 1021.8
20260503185002 29 135 0.0 3.2 0.00 0.00 0.00 47 1022.0
20260503184941 28 31 0.0 6.4 0.00 0.00 0.00 48 1022.1
20260503184545 28 0 0.0 6.4 0.00 0.00 0.00 45 1022.3
20260503184225 28 42 1.6 6.4 0.00 0.00 0.00 45 1022.4
20260503183501 28 129 0.0 3.2 0.00 0.00 0.00 45 1022.4
20260503183049 27 0 0.0 6.4 0.00 0.00 0.00 48 1022.6
20260503183001 28 336 0.0 6.4 0.00 0.00 0.00 48 1022.6
20260503182749 27 336 0.0 6.4 0.00 0.00 0.00 46 1022.6
20260503182001 28 188 0.0 9.7 0.00 0.00 0.00 47 1022.6
20260503181618 27 0 1.6 9.7 0.00 0.00 0.00 47 1022.9
20260503181501 27 257 1.6 9.7 0.00 0.00 0.00 47 1022.6
20260503181226 27 198 0.0 9.7 0.00 0.00 0.00 45 1022.7
20260503180501 27 232 0.0 11.3 0.00 0.00 0.00 47 1022.8
20260503180059 27 0 1.6 11.3 0.00 0.00 0.00 46 1023.0
20260503180001 27 342 1.6 11.3 0.00 0.00 0.00 47 1022.8
20260503175500 28 314 0.0 9.7 0.00 0.00 0.00 48 1022.9
20260503175001 27 205 0.0 3.2 0.00 0.00 0.00 47 1022.8
20260503174555 27 0 0.0 1.6 0.00 0.00 0.00 51 1023.1
20260503174501 27 37 0.0 3.2 0.00 0.00 0.00 48 1022.9
20260503174002 27 276 0.0 3.2 0.00 0.00 0.00 49 1023.1
20260503173501 27 231 0.0 4.8 0.00 0.00 0.00 50 1023.3
20260503173056 27 0 0.0 6.4 0.00 0.00 0.00 49 1023.5
20260503173001 27 19 1.6 4.8 0.00 0.00 0.00 50 1023.2
20260503172501 27 30 0.0 4.8 0.00 0.00 0.00 51 1023.3
20260503172248 26 172 0.0 8.0 0.00 0.00 0.00 50 1023.4
20260503171543 26 0 0.0 8.0 0.00 0.00 0.00 50 1023.7
20260503171502 26 191 1.6 8.0 0.00 0.00 0.00 51 1023.4
20260503171002 26 171 1.6 8.0 0.00 0.00 0.00 50 1023.5
20260503170503 26 97 0.0 9.7 0.00 0.00 0.00 50 1023.6
20260503151000 25 249 0.0 0.0 0.00 0.00 0.00 56 1023.8
20260503150502 25 249 0.0 0.0 0.00 0.00 0.00 56 1023.7
20260503131001 20 42 0.0 0.0 0.00 0.00 0.00 70 1023.1
20260503130501 20 42 0.0 0.0 0.00 0.00 0.00 71 1023.0
20260503110450 16 42 0.0 0.0 0.00 0.00 0.00 87 1022.1
20260503100104 16 0 0.0 0.0 0.00 0.00 0.00 85 1022.4
20260503090402 17 42 0.0 0.0 0.00 0.00 0.00 79 1022.2
20260503081558 17 0 0.0 0.0 0.00 0.00 0.00 78 1022.8
20260503080900 18 42 0.0 0.0 0.00 0.00 0.00 79 1022.6
20260503080359 17 42 0.0 0.0 0.00 0.00 0.00 80 1022.9
20260503080118 17 42 0.0 0.0 0.00 0.00 0.00 80 1022.9
20260503072820 17 42 0.0 0.0 0.00 0.00 0.00 81 1022.7
20260503072319 17 42 0.0 0.0 0.00 0.00 0.00 81 1022.7
20260503071812 17 42 0.0 0.0 0.00 0.00 0.00 80 1022.6
20260503071559 17 0 0.0 0.0 0.00 0.00 0.00 80 1022.9
20260503071307 17 42 0.0 0.0 0.00 0.00 0.00 80 1022.7
20260503071055 17 42 0.0 0.0 0.00 0.00 0.00 79 1022.7
20260503070307 17 42 0.0 0.0 0.00 0.00 0.00 78 1022.8
20260503060112 18 0 0.0 0.0 0.00 0.00 0.00 72 1023.6
20260503054802 19 42 0.0 0.0 0.00 0.00 0.00 70 1023.5
20260503054553 19 0 0.0 0.0 0.00 0.00 0.00 70 1023.8
20260503054302 19 42 0.0 0.0 0.00 0.00 0.00 70 1023.5
20260503053802 19 42 0.0 0.0 0.00 0.00 0.00 69 1023.5